Stations météo

réclame
Mon MeteoGroup
Meaulte, France (7059): Température de l'air & dewpoint: 09.12.2017 18:00:00 - 15.12.2017 18:00:00 (CET)Meaulte, France (7059): Vitesse du vent & gusts: 09.12.2017 18:00:00 - 15.12.2017 18:00:00 (CET)Meaulte, France (7059): Direction du vent: 09.12.2017 18:00:00 - 15.12.2017 18:00:00 (CET)Meaulte, France (7059): reduced air pressure: 09.12.2017 18:00:00 - 15.12.2017 18:00:00 (CET)Meaulte, France (7059): visibility: 09.12.2017 18:00:00 - 15.12.2017 18:00:00 (CET)Meaulte, France (7059): Quantités de précipitations: 09.12.2017 18:00:00 - 15.12.2017 18:00:00 (CET)
Date & Time tt [°C] td [°C] ff [km/h] ff [knt] fx [km/h] fx [knt] dd ppp [hPa] vv [km] rr [mm]
15.12.2017 18:00:00 3,6 2,4 18 10 28 15 NW 999,1 20 0,0
15.12.2017 17:00:00 3,9 2,9 16 9 28 15 NNW 998,1 45 0,0
15.12.2017 16:00:00 4,1 3,1 15 8 21 11 NW 997,1 40 -
15.12.2017 15:00:00 4,1 3,4 11 6 18 10 WNW 996,3 45 0,0
15.12.2017 14:00:00 4,0 3,3 13 7 21 11 W 995,7 55 0,0
15.12.2017 13:00:00 3,8 3,1 15 8 34 18 WSW 995,3 6 -
15.12.2017 12:00:00 4,0 3,0 18 10 35 19 SW 995,1 55 1,0
15.12.2017 11:00:00 3,5 2,8 15 8 44 24 SSW 995,1 9 2,0
15.12.2017 10:00:00 3,6 2,7 24 13 37 20 SW 994,4 19 -
15.12.2017 09:00:00 2,4 2,0 18 10 26 14 SSW 994,3 9 0,4
15.12.2017 08:00:00 1,7 1,4 16 9 21 11 SW 994,3 19 0,0
15.12.2017 07:00:00 0,9 0,5 11 6 22 12 W 993,8 19 -
15.12.2017 06:00:00 1,3 0,9 11 6 16 9 WSW 993,7 15 0,0
15.12.2017 05:00:00 1,8 1,2 13 7 22 12 WSW 993,0 60 0,2
15.12.2017 04:00:00 2,2 1,6 11 6 31 17 SW 992,8 18 -
15.12.2017 03:00:00 3,0 2,3 18 10 29 16 SSW 992,4 14 0,2
15.12.2017 02:00:00 3,1 2,1 15 8 31 17 SSW 992,4 45 0,0
15.12.2017 01:00:00 2,7 2,0 24 13 34 18 SW 992,6 40 -
15.12.2017 00:00:00 2,6 1,9 22 12 31 17 SW 992,5 40 0,0
14.12.2017 23:00:00 1,6 1,0 16 9 29 16 WSW 992,6 60 0,0
14.12.2017 22:00:00 1,9 1,2 22 12 31 17 WSW 992,1 60 -
14.12.2017 21:00:00 2,2 1,2 21 11 37 20 WSW 992,1 60 0,4
14.12.2017 20:00:00 2,7 1,7 18 10 31 17 W 992,3 7 2,0
14.12.2017 19:00:00 3,2 2,2 13 7 41 22 SW 992,4 60 -
14.12.2017 18:00:00 3,4 1,9 26 14 41 22 SW 992,2 60 0,0
14.12.2017 17:00:00 4,3 2,5 26 14 44 24 SW 992,5 60 0,0
14.12.2017 16:00:00 4,3 2,8 31 17 54 29 SW 993,6 60 -
14.12.2017 15:00:00 4,9 3,1 31 17 52 28 SW 994,5 40 1,0
14.12.2017 14:00:00 5,1 3,1 31 17 55 30 SW 995,7 19 0,0
14.12.2017 13:00:00 5,1 3,3 31 17 54 29 SW 996,3 45 -
14.12.2017 12:00:00 5,2 3,0 42 23 61 33 SW 997,2 45 0,2
14.12.2017 11:00:00 3,6 2,7 24 13 61 33 SSW 998,2 6 1,0
14.12.2017 10:00:00 3,6 2,0 42 23 83 45 SW 997,5 60 -
14.12.2017 09:00:00 4,2 2,1 42 23 68 37 SW 998,1 11 0,2
14.12.2017 08:00:00 4,1 2,1 24 13 54 29 SW 998,1 45 0,6
14.12.2017 07:00:00 4,5 2,2 35 19 55 30 SW 998,3 13 -
14.12.2017 06:00:00 4,5 2,4 26 14 54 29 WSW 998,3 35 0,4
14.12.2017 05:00:00 4,5 2,0 28 15 48 26 WSW 998,0 15 0,0
14.12.2017 04:00:00 5,3 1,2 29 16 59 32 W 997,8 40 -
14.12.2017 03:00:00 4,9 0,1 37 20 67 36 W 996,9 40 0,0
14.12.2017 02:00:00 4,5 2,4 37 20 67 36 W 995,6 50 0,0
14.12.2017 01:00:00 4,7 3,0 37 20 83 45 W 994,0 60 -
14.12.2017 00:00:00 5,7 4,7 28 15 54 29 SW 993,5 4,8 0,8
13.12.2017 23:00:00 4,7 3,7 16 9 34 18 SW 994,2 19 0,0
13.12.2017 22:00:00 5,4 3,9 24 13 37 20 W 994,5 35 -
13.12.2017 21:00:00 6,4 4,7 28 15 41 22 W 994,1 55 0,0
13.12.2017 20:00:00 7,0 4,8 34 18 74 40 WNW 994,2 15 2,0
13.12.2017 19:00:00 8,1 7,5 37 20 59 32 SW 993,4 4,9 -
13.12.2017 18:00:00 7,9 7,0 34 18 57 31 SSW 994,7 13 0,0
13.12.2017 17:00:00 7,9 6,7 35 19 55 30 SSW 996,5 12 0,2
13.12.2017 16:00:00 7,9 7,0 29 16 46 25 SSW 998,4 26 -
13.12.2017 15:00:00 7,5 6,9 28 15 37 20 SSW 999,8 28 0,0
13.12.2017 14:00:00 7,2 6,6 22 12 31 17 SSW 1000,7 15 0,2
13.12.2017 13:00:00 6,7 6,0 26 14 37 20 SSW 1002,0 12 -
13.12.2017 12:00:00 6,4 5,7 24 13 37 20 SSW 1003,1 55 0,0
13.12.2017 11:00:00 5,9 5,5 28 15 42 23 SSW 1003,9 45 0,0
13.12.2017 10:00:00 5,5 4,9 34 18 50 27 SSW 1004,2 6 -
13.12.2017 09:00:00 4,7 4,4 34 18 54 29 SSW 1004,6 5 0,0
13.12.2017 08:00:00 4,0 3,6 35 19 55 30 SSW 1005,2 7 0,4
13.12.2017 07:00:00 3,7 3,1 39 21 52 28 S 1005,6 5 -
13.12.2017 06:00:00 3,4 2,7 26 14 44 24 S 1007,6 6 1,0
13.12.2017 05:00:00 3,4 2,5 34 18 48 26 S 1009,2 11 0,6
13.12.2017 04:00:00 3,2 2,2 26 14 39 21 S 1010,6 15 -
13.12.2017 03:00:00 2,7 1,8 24 13 35 19 S 1011,4 15 0,0
13.12.2017 02:00:00 2,4 1,5 22 12 35 19 S 1012,1 14 0,0
13.12.2017 01:00:00 2,0 1,3 18 10 28 15 S 1012,8 12 -
13.12.2017 00:00:00 1,4 0,8 18 10 28 15 S 1013,5 9 0,0
12.12.2017 23:00:00 1,2 0,5 15 8 24 13 S 1014,1 11 0,0
12.12.2017 22:00:00 1,0 0,3 16 9 22 12 SSW 1014,7 14 -
12.12.2017 21:00:00 0,8 0,1 13 7 18 10 S 1014,4 19 0,0
12.12.2017 20:00:00 1,4 0,2 15 8 18 10 SSW 1014,5 26 0,0
12.12.2017 19:00:00 0,6 -0,7 11 6 16 9 SSW 1014,3 30 -
12.12.2017 18:00:00 1,2 -0,1 13 7 15 8 SSW 1013,8 27 0,0
12.12.2017 17:00:00 1,8 0,5 13 7 18 10 SW 1013,6 18 0,0
12.12.2017 16:00:00 4,3 1,3 15 8 21 11 SW 1012,5 40 -
12.12.2017 15:00:00 5,3 1,9 16 9 24 13 SW 1011,6 24 0,0
12.12.2017 14:00:00 5,3 1,9 16 9 24 13 SW 1011,2 24 0,0
12.12.2017 13:00:00 4,7 1,5 16 9 22 12 WSW 1011,2 24 -
12.12.2017 12:00:00 3,7 1,4 15 8 22 12 WSW 1010,8 30 0,0
12.12.2017 11:00:00 2,1 0,6 13 7 18 10 SW 1010,3 35 0,0
12.12.2017 10:00:00 1,1 0,4 11 6 18 10 WSW 1009,3 17 -
12.12.2017 09:00:00 -0,6 -1,0 13 7 18 10 WSW 1008,4 10 0,0
12.12.2017 08:00:00 -0,2 -1,2 13 7 24 13 W 1006,9 13 0,0
12.12.2017 07:00:00 0,0 -0,7 16 9 21 11 W 1005,6 18 -
12.12.2017 06:00:00 0,8 -0,2 11 6 22 12 WNW 1004,3 24 0,0
12.12.2017 05:00:00 1,7 0,4 15 8 29 16 WNW 1002,5 29 0,0
12.12.2017 04:00:00 1,9 0,3 15 8 29 16 WNW 1001,3 40 -
12.12.2017 03:00:00 2,4 0,5 18 10 31 17 WNW 999,8 50 0,0
12.12.2017 02:00:00 2,2 0,6 16 9 31 17 WNW 998,4 40 0,0
12.12.2017 01:00:00 2,3 1,4 18 10 34 18 WNW 996,8 16 -
12.12.2017 00:00:00 1,8 1,1 22 12 39 21 WNW 995,1 55 0,2
11.12.2017 23:00:00 2,6 1,3 21 11 34 18 WNW 992,9 40 0,0
11.12.2017 22:00:00 2,3 0,8 21 11 44 24 NW 990,2 55 -
11.12.2017 21:00:00 2,1 0,8 28 15 48 26 NNW 987,9 11 0,0
11.12.2017 20:00:00 2,1 0,6 35 19 63 34 NNW 985,4 60 0,0
11.12.2017 19:00:00 1,5 0,5 42 23 74 40 N 982,1 10 -
11.12.2017 18:00:00 1,1 0,1 48 26 68 37 N 978,7 14 0,0
11.12.2017 17:00:00 0,8 0,1 42 23 59 32 N 975,3 4,4 0,2
11.12.2017 16:00:00 5,4 4,2 22 12 44 24 W 971,1 9 -
11.12.2017 15:00:00 6,6 5,2 35 19 55 30 S 969,4 19 0,0
11.12.2017 14:00:00 7,0 5,5 31 17 59 32 S 969,4 14 0,6
11.12.2017 13:00:00 6,9 5,7 31 17 48 26 S 969,6 5 -
11.12.2017 12:00:00 7,9 6,0 26 14 50 27 SSE 969,9 10 0,6
11.12.2017 11:00:00 7,4 6,8 22 12 34 18 ESE 970,7 10 0,2
11.12.2017 10:00:00 5,5 5,1 26 14 44 24 E 971,8 5 -
11.12.2017 09:00:00 5,5 5,1 31 17 54 29 ENE 972,4 11 5,0
11.12.2017 08:00:00 5,3 4,6 34 18 61 33 ENE 972,8 3,2 4,0
11.12.2017 07:00:00 5,6 5,0 31 17 44 24 E 973,8 7 -
11.12.2017 06:00:00 5,4 5,0 24 13 35 19 E 975,6 9 1,0
11.12.2017 05:00:00 5,2 4,6 18 10 24 13 E 977,8 11 0,0
11.12.2017 04:00:00 4,6 3,9 15 8 21 11 E 979,6 19 -
11.12.2017 03:00:00 4,2 3,6 13 7 16 9 ESE 981,3 30 0,0
11.12.2017 02:00:00 3,9 3,3 11 6 15 8 SSE 982,1 50 0,0
11.12.2017 01:00:00 3,8 2,9 11 6 15 8 SSE 981,8 35 -
11.12.2017 00:00:00 5,0 3,8 9 5 22 12 S 983,1 45 0,0
10.12.2017 23:00:00 5,0 4,0 15 8 28 15 SW 982,6 50 0,0
10.12.2017 22:00:00 5,8 4,3 24 13 39 21 WSW 982,4 55 -
10.12.2017 21:00:00 6,0 4,5 22 12 35 19 WSW 982,1 18 0,2
10.12.2017 20:00:00 6,2 4,2 34 18 61 33 WSW 981,5 13 0,2
10.12.2017 19:00:00 6,5 4,0 46 25 80 43 WSW 980,3 14 -
10.12.2017 18:00:00 7,3 4,6 41 22 65 35 SW 979,2 55 0,0
10.12.2017 17:00:00 7,6 5,2 39 21 81 44 SW 978,9 40 0,0
10.12.2017 16:00:00 8,7 4,7 48 26 81 44 WSW 978,4 13 -
10.12.2017 15:00:00 9,1 3,7 63 34 87 47 WSW 978,2 9 0,0
10.12.2017 14:00:00 8,9 5,1 41 22 76 41 WSW 978,3 16 0,2
10.12.2017 13:00:00 7,9 5,4 50 27 74 40 W 978,7 2,8 -
10.12.2017 12:00:00 5,1 4,8 35 19 52 28 SW 978,8 8 2,0
10.12.2017 11:00:00 1,7 1,6 29 16 48 26 S 979,6 18 2,0
10.12.2017 10:00:00 0,8 0,7 28 15 42 23 S 981,1 50 -
10.12.2017 09:00:00 0,2 0,1 35 19 52 28 SSE 985,0 10 1,0
10.12.2017 08:00:00 0,1 -0,2 35 19 48 26 SE 987,7 1,2 0,0
10.12.2017 07:00:00 1,0 0,3 31 17 46 25 SSE 991,7 4,2 -
10.12.2017 06:00:00 1,9 1,2 31 17 42 23 S 994,9 12 0,4
10.12.2017 05:00:00 2,0 1,3 26 14 35 19 S 998,1 7 0,0
10.12.2017 04:00:00 2,0 1,3 24 13 34 18 S 1001,3 8 -
10.12.2017 03:00:00 1,9 1,2 22 12 34 18 S 1003,5 9 0,0
10.12.2017 02:00:00 1,8 1,1 24 13 31 17 S 1005,5 10 0,0
10.12.2017 01:00:00 1,6 1,0 15 8 22 12 S 1007,4 9 -
10.12.2017 00:00:00 1,3 0,4 11 6 24 13 S 1009,0 10 0,0
09.12.2017 23:00:00 1,3 0,3 18 10 29 16 S 1010,2 15 0,0
09.12.2017 22:00:00 1,3 0,1 24 13 31 17 SSW 1011,1 30 -
09.12.2017 21:00:00 1,3 0,1 18 10 24 13 SSW 1012,3 35 0,0
09.12.2017 20:00:00 1,4 0,2 15 8 24 13 S 1013,2 40 0,0
09.12.2017 19:00:00 1,7 0,1 21 11 29 16 SW 1014,0 45 -
09.12.2017 18:00:00 1,8 0,2 18 10 29 16 SW 1014,7 35 0,0

tt = Température de l'air
td = dewpoint
ff = Vitesse du vent
fx = gusts
dd = Direction du vent
ppp = reduced air pressure
vv = visibility
rr = Quantités de précipitations

stations d'obs. à proximité